Mojave, CA

2:25 PM PST on December 05, 2019 (GMT -0800)
Mojave

Weather History for KMHV - November, 2019

Change the Weather History Date:

Tuesday, November 19, 2019

  Actual Average Record
Temperature  
Mean Temperature 62 °F -  
Max Temperature 78 °F 60 °F 75 °F (2001)
Min Temperature 46 °F 36 °F 16 °F (1964)
Degree Days  
Heating Degree Days 3    
Growing Degree Days 12 (Base 50)    
Moisture  
Dew Point 23 °F    
Average Humidity 28    
Maximum Humidity 67    
Minimum Humidity 9    
Precipitation  
Precipitation 0.00 in - - ()
Sea Level Pressure  
Sea Level Pressure 29.71 in    
Wind  
Wind Speed 7 mph ()    
Max Wind Speed 24 mph    
Max Gust Speed 32 mph    
Visibility 9.7 miles    
Events      
Averages and records for this station are not official NWS values.
T = Trace of Precipitation, MM = Missing Value Source: Averaged Metar Reports

Daily Weather History Graph

Daily Weather History Graph

Search for Another Location

Airport or City:

Astronomy

Nov. 19, 2019 Rise Set
Actual Time 6:30 AM PST 4:44 PM PST
Civil Twilight 6:03 AM PST 5:11 PM PST
Nautical Twilight 5:33 AM PST 5:42 PM PST
Astronomical Twilight 5:02 AM PST 6:12 PM PST
Moon 11:43 PM PST (11/19) 12:46 PM PST (11/19)
Length of Visible Light 11h 08m
Length of Day
10h 13m
Waning Gibbous, 50% of the Moon is Illuminated
Nov 19
Waning Gibbous
Nov 19
Last Quarter
Nov 26
New
Dec 3
First Quarter
Dec 11
Full

Hourly Weather History & Observations

Time (PST) Temp. Windchill Dew Point Humidity Pressure Visibility Wind Dir Wind Speed Gust Speed Precip Events Conditions
12:00 AM 48.2 °F - 14.0 °F 25% 29.90 in 10.0 mi Calm Calm - N/A   Clear
12:20 AM 48.2 °F - 14.0 °F 25% 29.89 in 10.0 mi Calm Calm - N/A   Clear
12:40 AM 48.2 °F - 14.0 °F 25% 29.87 in 10.0 mi WNW 4.6 mph - N/A   Clear
1:00 AM 50.0 °F - 14.0 °F 24% 29.87 in 10.0 mi NW 5.8 mph - N/A   Partly Cloudy
1:20 AM 50.0 °F - 14.0 °F 24% 29.86 in 10.0 mi Calm Calm - N/A   Partly Cloudy
1:40 AM 50.0 °F - 15.8 °F 26% 29.86 in 10.0 mi Calm Calm - N/A   Clear
2:00 AM 48.2 °F - 14.0 °F 25% 29.86 in 10.0 mi WNW 4.6 mph - N/A   Clear
2:20 AM 50.0 °F - 15.8 °F 26% 29.84 in 10.0 mi NW 5.8 mph - N/A   Clear
2:40 AM 48.2 °F - 14.0 °F 25% 29.83 in 9.0 mi Calm Calm - N/A   Clear
3:00 AM 46.4 °F 45.2 °F 14.0 °F 27% 29.83 in 10.0 mi NNW 3.5 mph - N/A   Clear
3:20 AM 48.2 °F - 15.8 °F 27% 29.82 in 10.0 mi Calm Calm - N/A   Clear
3:40 AM 50.0 °F - 15.8 °F 26% 29.82 in 10.0 mi Calm Calm - N/A   Clear
4:00 AM 48.2 °F - 15.8 °F 27% 29.82 in 10.0 mi Calm Calm - N/A   Clear
4:20 AM 48.2 °F - 14.0 °F 25% 29.82 in 10.0 mi NW 5.8 mph - N/A   Clear
4:40 AM 50.0 °F - 15.8 °F 26% 29.82 in 10.0 mi NW 9.2 mph - N/A   Clear
5:00 AM 50.0 °F - 15.8 °F 26% 29.82 in 10.0 mi SE 4.6 mph 13.8 mph N/A   Clear
5:20 AM 50.0 °F - 15.8 °F 26% 29.82 in 10.0 mi Calm Calm - N/A   Clear
5:40 AM 48.2 °F - 15.8 °F 27% 29.84 in 10.0 mi South 3.5 mph - N/A   Clear
6:00 AM 50.0 °F - 15.8 °F 26% 29.83 in 10.0 mi WNW 5.8 mph - N/A   Clear
6:20 AM 50.0 °F - 15.8 °F 26% 29.83 in 10.0 mi WNW 6.9 mph - N/A   Clear
6:40 AM 53.6 °F - 15.8 °F 22% 29.82 in 8.0 mi West 10.4 mph - N/A   Clear
7:00 AM 59.0 °F - 17.6 °F 20% 29.82 in 10.0 mi SW 6.9 mph - N/A   Clear
7:20 AM 60.8 °F - 17.6 °F 19% 29.83 in 10.0 mi South 10.4 mph - N/A   Clear
8:00 AM 66.2 °F - 17.6 °F 15% 29.82 in 10.0 mi Calm Calm - N/A   Clear
8:20 AM 68.0 °F - 15.8 °F 13% 29.82 in 10.0 mi SSW 9.2 mph - N/A   Clear
8:40 AM 68.0 °F - 15.8 °F 13% 29.81 in 10.0 mi SW 6.9 mph - N/A   Clear
9:00 AM 69.8 °F - 15.8 °F 13% 29.80 in 10.0 mi South 4.6 mph - N/A   Clear
9:20 AM 71.6 °F - 17.6 °F 13% 29.79 in 10.0 mi SSE 5.8 mph - N/A   Clear
9:40 AM 73.4 °F - 15.8 °F 11% 29.78 in 10.0 mi SW 13.8 mph - N/A   Clear
10:00 AM 75.2 °F - 12.2 °F 9% 29.78 in 10.0 mi SW 21.9 mph - N/A   Clear
10:20 AM 75.2 °F - 14.0 °F 10% 29.78 in 10.0 mi WSW 20.7 mph 27.6 mph N/A   Clear
10:40 AM 75.2 °F - 14.0 °F 10% 29.77 in 10.0 mi WSW 10.4 mph 17.3 mph N/A   Clear
11:00 AM 75.2 °F - 14.0 °F 10% 29.76 in 10.0 mi West 11.5 mph 17.3 mph N/A   Clear
11:20 AM 75.2 °F - 14.0 °F 10% 29.74 in 10.0 mi West 12.7 mph 18.4 mph N/A   Clear
11:40 AM 77.0 °F - 15.8 °F 10% 29.72 in 10.0 mi West 18.4 mph 24.2 mph N/A   Clear
12:00 PM 77.0 °F - 15.8 °F 10% 29.71 in 10.0 mi WNW 17.3 mph - N/A   Clear
12:20 PM 78.8 °F - 15.8 °F 9% 29.70 in 10.0 mi West 18.4 mph - N/A   Clear
12:40 PM 77.0 °F - 15.8 °F 10% 29.68 in 10.0 mi West 16.1 mph - N/A   Clear
1:00 PM 77.0 °F - 17.6 °F 11% 29.68 in 10.0 mi SSW 19.6 mph 25.3 mph N/A   Clear
1:20 PM 75.2 °F - 19.4 °F 12% 29.67 in 10.0 mi SSW 23.0 mph - N/A   Clear
1:40 PM 75.2 °F - 19.4 °F 12% 29.66 in 9.0 mi SSW 24.2 mph 32.2 mph N/A   Clear
2:00 PM - - - N/A% 29.65 in - North - - N/A   Unknown
2:20 PM 73.4 °F - 21.2 °F 14% 29.64 in 10.0 mi SSW 20.7 mph 31.1 mph N/A   Unknown
2:40 PM 73.4 °F - 21.2 °F 14% 29.64 in 10.0 mi WSW 17.3 mph 31.1 mph N/A   Clear
3:20 PM 69.8 °F - 23.0 °F 17% 29.63 in 10.0 mi West 13.8 mph 19.6 mph N/A   Clear
3:40 PM 69.8 °F - 23.0 °F 17% 29.62 in 10.0 mi West 13.8 mph 20.7 mph N/A   Clear
4:00 PM 69.8 °F - 24.8 °F 18% 29.62 in 10.0 mi West 16.1 mph 21.9 mph N/A   Clear
4:20 PM 68.0 °F - 30.2 °F 24% 29.61 in 10.0 mi West 16.1 mph 25.3 mph N/A   Scattered Clouds
4:40 PM 66.2 °F - 33.8 °F 30% 29.61 in 10.0 mi WNW 19.6 mph - N/A   Scattered Clouds
5:00 PM 64.4 °F - 35.6 °F 34% 29.61 in 10.0 mi WNW 17.3 mph 29.9 mph N/A   Clear
5:20 PM 62.6 °F - 35.6 °F 37% 29.62 in 10.0 mi West 19.6 mph 25.3 mph N/A   Clear
5:40 PM 62.6 °F - 35.6 °F 37% 29.62 in 10.0 mi West 17.3 mph - N/A   Clear
6:00 PM 60.8 °F - 35.6 °F 39% 29.61 in 10.0 mi North - - N/A   Clear
6:20 PM 60.8 °F - 35.6 °F 39% 29.61 in 10.0 mi WSW 10.4 mph 16.1 mph N/A   Clear
6:40 PM 59.0 °F - 35.6 °F 42% 29.60 in 10.0 mi SW 9.2 mph - N/A   Clear
7:00 PM 57.2 °F - 30.2 °F 36% 29.60 in 10.0 mi SW 9.2 mph - N/A   Partly Cloudy
7:20 PM 57.2 °F - 32.0 °F 38% 29.60 in 10.0 mi SW 10.4 mph - N/A   Scattered Clouds
7:40 PM 59.0 °F - 37.4 °F 45% 29.59 in 10.0 mi WSW 13.8 mph - N/A   Mostly Cloudy
8:00 PM 57.2 °F - 37.4 °F 48% 29.59 in 10.0 mi WSW 11.5 mph - N/A   Mostly Cloudy
8:20 PM 59.0 °F - 37.4 °F 45% 29.58 in 10.0 mi West 18.4 mph 24.2 mph N/A   Scattered Clouds
8:40 PM 57.2 °F - 37.4 °F 48% 29.57 in 10.0 mi WSW 9.2 mph 17.3 mph N/A   Partly Cloudy
9:00 PM 57.2 °F - 37.4 °F 48% 29.56 in 10.0 mi WSW 10.4 mph - N/A   Scattered Clouds
9:20 PM 55.4 °F - 37.4 °F 51% 29.56 in 10.0 mi WSW 12.7 mph - N/A   Mostly Cloudy
9:40 PM 55.4 °F - 39.2 °F 54% 29.55 in 10.0 mi WSW 9.2 mph 19.6 mph N/A   Scattered Clouds
10:00 PM 55.4 °F - 41.0 °F 58% 29.55 in 9.0 mi West 13.8 mph - N/A   Mostly Cloudy
10:20 PM 55.4 °F - 41.0 °F 58% 29.54 in 8.0 mi WSW 13.8 mph - N/A   Mostly Cloudy
10:40 PM 55.4 °F - 41.0 °F 58% 29.54 in 8.0 mi SW 6.9 mph - N/A   Overcast
11:00 PM 53.6 °F - 41.0 °F 62% 29.53 in 7.0 mi West 8.1 mph - N/A   Mostly Cloudy
11:20 PM 53.6 °F - 41.0 °F 62% 29.53 in 7.0 mi West 6.9 mph 12.7 mph N/A   Mostly Cloudy
11:40 PM 51.8 °F - 41.0 °F 67% 29.52 in 7.0 mi West 9.2 mph - N/A   Mostly Cloudy